Location: Unspecified
(48.7670°N, 0.0000°E)
Time: 15:11:45
(UTC+00:00)

S-56A Canister/Altair - Visible Passes

Search period start: 21 October 2019 00:00
Search period end: 31 October 2019 00:00
Orbit: 633 x 2499 km, 38.9° (Epoch: 20 October)

Date Brightness Start Highest point End Pass type
(mag) Time Alt. Az. Time Alt. Az. Time Alt. Az.
21 Oct 10.6 01:44:31 13° ESE 01:44:31 13° ESE 01:45:45 10° ESE visible
21 Oct 9.1 03:41:57 36° S 03:43:29 40° SSE 03:52:30 10° ESE visible
21 Oct 9.8 05:39:47 10° WSW 05:47:22 44° S 05:58:24 10° ESE visible
22 Oct 9.2 03:11:06 36° SSE 03:11:06 36° SSE 03:18:58 10° ESE visible
22 Oct 9.6 05:08:31 16° WSW 05:14:27 43° S 05:24:51 10° ESE visible
23 Oct 9.7 02:40:14 28° SE 02:40:14 28° SE 02:45:28 10° E visible
23 Oct 9.3 04:37:40 25° SW 04:41:35 42° S 04:51:18 10° ESE visible
24 Oct 10.3 02:09:23 19° ESE 02:09:23 19° ESE 02:12:02 10° ESE visible
24 Oct 9.0 04:06:49 35° SSW 04:08:48 41° S 04:17:48 10° ESE visible
25 Oct 10.8 01:38:33 10° ESE 01:38:33 10° ESE 01:38:40 10° ESE visible
25 Oct 9.0 03:35:59 39° S 03:36:05 39° S 03:44:21 10° ESE visible
25 Oct 9.9 05:33:25 11° WSW 05:39:51 32° SSW 05:49:09 10° SE visible
26 Oct 9.4 03:05:09 33° SE 03:05:09 33° SE 03:10:57 10° ESE visible
26 Oct 9.6 05:02:35 18° WSW 05:07:01 33° SSW 05:15:48 10° SE visible
27 Oct 10.0 02:34:21 22° SE 02:34:21 22° SE 02:37:38 10° ESE visible
27 Oct 9.2 04:31:47 27° SW 04:34:14 33° SSW 04:42:28 10° SE visible
28 Oct 10.6 02:03:34 13° ESE 02:03:34 13° ESE 02:04:23 10° ESE visible
28 Oct 9.1 04:01:00 32° SSW 04:01:30 32° S 04:09:10 10° SE visible
28 Oct 10.2 06:00:00 10° WSW 06:05:12 19° SSW 06:11:46 10° SSE visible
29 Oct 9.4 03:30:14 30° SSE 03:30:14 30° SSE 03:35:54 10° SE visible
29 Oct 10.0 05:27:41 11° WSW 05:32:24 20° SSW 05:38:46 10° SSE visible
30 Oct 9.9 02:59:30 21° SE 02:59:30 21° SE 03:02:42 10° SE visible
30 Oct 9.7 04:56:57 16° SW 04:59:39 20° SSW 05:05:45 10° SSE visible
